Regional Weather Roundup
Issued by NWS

Home | Current Version | Previous Version | Graphics & Text | Print | Product List | Glossary On
Versions: 1 2 3 4 5 6 7 8 9 10 11 12 13 14 15 16 17 18 19 20 21 22 23 24 25 26 27 28 29 30 31 32 33 34 35 36 37 38 39 40 41 42 43 44 45 46 47 48 49 50
496
ASUS44 KLIX 280405
RWRLA
LOUISIANA WEATHER ROUNDUP
NATIONAL WEATHER SERVICE NEW ORLEANS LA
1000 PM CST TUE JAN 27 2015

NOTE: "FAIR" INDICATES FEW OR NO CLOUDS BELOW 12,000 FEET WITH NO
      SIGNIFICANT WEATHER AND/OR OBSTRUCTIONS TO VISIBILITY.
      SKY/WX - SKY CONDITION AND SIGNIFICANT WEATHER.
      TMP - AIR TEMPERATURE.    DP   - DEWPOINT TEMPERATURE.
      RH  - RELATIVE HUMIDITY.  PRES - PRESSURE.
      HX  - HEAT INDEX.         WCI  - WIND CHILL INDEX.

*  THESE STATIONS ARE NOT NWS OR FAA STATIONS AND ARE NOT UNDER
   NWS QUALITY CONTROL.

LAZ040-048-061>063-065-066-069-280500-
SOUTHEAST LOUISIANA

CITY           SKY/WX    TMP DP  RH WIND       PRES   REMARKS
N.O. AUDUBON     N/A     54  50  86 MISG        N/A
N.O. INTL ARPT CLEAR     56  42  59 CALM      30.15R
N.O. LAKEFRONT CLEAR     58  44  60 N12       30.15R
N.O. DOWNTOWN* FAIR     N/A N/A N/A CALM      30.15S
SLIDELL        CLEAR     46  42  86 N6        30.15R
BATON ROUGE    CLEAR     48  39  71 CALM      30.16R
BOOTHVILLE     CLEAR     55  52  89 W9        30.15R
BELLE CHASSE   CLEAR     48  42  80 CALM      30.14S
BOGALUSA*        N/A     43  38  81 N6        30.18R
GALLIANO*      CLEAR     55  51  85 MISG      30.16R
NEW ROADS*     FAIR      49  41  73 CALM      30.17R
GONZALES*      FAIR      51  42  71 CALM      30.16R
HAMMOND*       CLEAR     48  39  71 N3        30.17S
HOUMA*         CLEAR     52  48  87 SW3       30.15S
PORT FOURCHON* CLEAR     57  54  88 W5        30.19R

$$

LAZ041-044-053-054-280500-
SOUTHWEST LOUISIANA

CITY           SKY/WX    TMP DP  RH WIND       PRES   REMARKS
LAKE CHARLES   CLEAR     48  46  93 CALM      30.15S
LAFAYETTE      CLEAR     51  43  74 CALM      30.16R
PATTERSON      CLEAR     48  46  93 CALM      30.16F
SALT POINT       N/A     54  51  90 CALM      30.15S
NEW IBERIA     CLEAR     51  46  83 SW3       30.16S
CHENAULT AIRPK CLEAR     51  48  89 CALM      30.16S

$$

LAZ027-028-280500-
CENTRAL LOUISIANA

CITY           SKY/WX    TMP DP  RH WIND       PRES   REMARKS
FORT POLK      CLEAR     49  42  78 S2        30.15R
ALEXANDRIA INT CLEAR     49  43  80 CALM      30.15R
ALEXANDRIA     CLEAR     46  40  79 CALM      30.17R

$$

LAZ001-002-280500-
NORTHWEST LOUISIANA

CITY           SKY/WX    TMP DP  RH WIND       PRES   REMARKS
SHREVEPORT     CLEAR     51  40  65 CALM      30.14R
BARKSDALE AFB  CLEAR     47  37  69 SE3       30.14S
DTN SHREVEPORT CLEAR     49  35  58 CALM      30.14S

$$

LAZ014-016-280500-
NORTHEAST LOUISIANA

CITY           SKY/WX    TMP DP  RH WIND       PRES   REMARKS
MONROE         CLEAR     44  39  82 CALM      30.18R
TALLULAH       CLEAR     47  37  68 NE5       30.18S

$$




USA.gov is the U.S. government's official web portal to all federal, state and local government web resources and services.